Location: Dumpton Point
(51.3500°N, 1.4433°E)
Time: 14:37:33
(UTC+00:00)

Envisat - Pass Details

Date: 16 December 2021
Orbit: 764 x 766 km, 98.2° (Epoch: 28 January)

Event Time Altitude Azimuth Distance (km) Brightness Sun altitude
Rises 06:22:36 0° 7° (N) 3,247 6.1 -13.2°
Reaches altitude 10° 06:25:13 10° 355° (N) 2,316 5.2 -12.8°
Maximum altitude 06:29:22 26° 300° (WNW) 1,488 3.9 -12.2°
Drops below altitude 10° 06:33:29 10° 246° (WSW) 2,303 5.1 -11.6°
Sets 06:36:06 0° 234° (SW) 3,225 5.9 -11.2°
